Tiempo cada hora Al Mahwit

Hoy, 3 Agosto, Martes

Tiempo Temperatura Precipitaciones Viento Presión Humedad
00:00 +26°C° 0.1 mm 2 mps 657 mmHg 66%
01:00 +26°C° 0.1 mm 2 mps 656 mmHg 64%
02:00 +26°C° 0.1 mm 3 mps 656 mmHg 62%
03:00 +26°C° 0.1 mm 3 mps 656 mmHg 60%
04:00 +26°C° 0 mm 3 mps 656 mmHg 59%
05:00 +26°C° 0 mm 3 mps 655 mmHg 57%
06:00 +26°C° 0 mm 2 mps 655 mmHg 55%
07:00 +28°C° 0 mm 2 mps 656 mmHg 49%
08:00 +29°C° 0 mm 2 mps 657 mmHg 42%
09:00 +31°C° 0 mm 2 mps 657 mmHg 36%
10:00 +31°C° 0 mm 3 mps 657 mmHg 37%
11:00 +31°C° 0 mm 3 mps 657 mmHg 37%
12:00 +33°C° 0 mm 4 mps 657 mmHg 38%
13:00 +33°C° 0 mm 4 mps 657 mmHg 39%
14:00 +33°C° 0 mm 4 mps 657 mmHg 40%
15:00 +33°C° 0 mm 4 mps 657 mmHg 40%
16:00 +32°C° 0.1 mm 4 mps 657 mmHg 45%
17:00 +30°C° 0.1 mm 4 mps 657 mmHg 49%
18:00 +29°C° 0.1 mm 4 mps 657 mmHg 53%
19:00 +29°C° 0.2 mm 3 mps 657 mmHg 58%
20:00 +28°C° 0.2 mm 2 mps 657 mmHg 62%
21:00 +27°C° 0.2 mm 2 mps 658 mmHg 67%
22:00 +27°C° 0.1 mm 1 mps 657 mmHg 68%
23:00 +27°C° 0.1 mm 1 mps 657 mmHg 70%

Mañana, 4 Agosto, Miércoles

Tiempo Temperatura Precipitaciones Viento Presión Humedad
00:00 +26°C° 0.1 mm 1 mps 657 mmHg 72%
01:00 +26°C° 0 mm 1 mps 657 mmHg 73%
02:00 +26°C° 0 mm 1 mps 657 mmHg 73%
03:00 +26°C° 0 mm 1 mps 656 mmHg 74%
04:00 +26°C° 0 mm 1 mps 657 mmHg 75%
05:00 +26°C° 0 mm 1 mps 657 mmHg 75%
06:00 +25°C° 0 mm 1 mps 657 mmHg 76%
07:00 +26°C° 0 mm 1 mps 658 mmHg 69%
08:00 +27°C° 0 mm 1 mps 658 mmHg 63%
09:00 +28°C° 0 mm 2 mps 659 mmHg 56%
10:00 +29°C° 0 mm 2 mps 659 mmHg 54%
11:00 +30°C° 0 mm 3 mps 658 mmHg 51%
12:00 +31°C° 0 mm 3 mps 658 mmHg 49%
13:00 +31°C° 0.3 mm 3 mps 658 mmHg 49%
14:00 +32°C° 0.3 mm 4 mps 658 mmHg 49%
15:00 +32°C° 0.3 mm 4 mps 657 mmHg 49%
16:00 +30°C° 1.9 mm 3 mps 657 mmHg 54%
17:00 +29°C° 1.9 mm 3 mps 657 mmHg 59%
18:00 +27°C° 1.9 mm 2 mps 657 mmHg 64%
19:00 +27°C° 1 mm 2 mps 657 mmHg 64%
20:00 +27°C° 1 mm 1 mps 657 mmHg 65%
21:00 +27°C° 1 mm 1 mps 658 mmHg 65%
22:00 +27°C° 0.1 mm 1 mps 658 mmHg 66%
23:00 +27°C° 0.1 mm 1 mps 658 mmHg 67%

Pasado mañana, 5 Agosto, Jueves

Tiempo Temperatura Precipitaciones Viento Presión Humedad
00:00 +26°C° 0.1 mm 1 mps 658 mmHg 69%
01:00 +26°C° 0 mm 1 mps 657 mmHg 70%
02:00 +26°C° 0 mm 1 mps 657 mmHg 71%
03:00 +24°C° 0 mm 0 mps 657 mmHg 73%
04:00 +26°C° 0 mm 1 mps 657 mmHg 73%
05:00 +26°C° 0 mm 1 mps 657 mmHg 73%
06:00 +26°C° 0 mm 1 mps 657 mmHg 73%
07:00 +26°C° 0.1 mm 1 mps 658 mmHg 67%
08:00 +27°C° 0.1 mm 1 mps 658 mmHg 61%
09:00 +28°C° 0.1 mm 1 mps 659 mmHg 55%
10:00 +29°C° 0.1 mm 2 mps 658 mmHg 53%
11:00 +30°C° 0.1 mm 2 mps 658 mmHg 51%
12:00 +30°C° 0.1 mm 3 mps 658 mmHg 49%
13:00 +30°C° 1.3 mm 3 mps 658 mmHg 51%
14:00 +30°C° 1.3 mm 3 mps 657 mmHg 53%
15:00 +30°C° 1.3 mm 4 mps 657 mmHg 55%
16:00 +28°C° 2.5 mm 3 mps 657 mmHg 59%
17:00 +27°C° 2.5 mm 3 mps 657 mmHg 64%
18:00 +26°C° 2.5 mm 2 mps 657 mmHg 68%
19:00 +26°C° 1.1 mm 2 mps 657 mmHg 67%
20:00 +26°C° 1.1 mm 2 mps 657 mmHg 66%
21:00 +26°C° 1.1 mm 2 mps 657 mmHg 65%
22:00 +26°C° 0 mm 2 mps 657 mmHg 65%
23:00 +26°C° 0 mm 2 mps 657 mmHg 64%

6 Agosto, Viernes

Tiempo Temperatura Precipitaciones Viento Presión Humedad
00:00 +26°C° 0 mm 2 mps 656 mmHg 63%
01:00 +26°C° 0 mm 1 mps 656 mmHg 65%
02:00 +26°C° 0 mm 1 mps 656 mmHg 66%
03:00 +24°C° 0 mm 0 mps 656 mmHg 67%
04:00 +24°C° 0 mm 0 mps 656 mmHg 66%
05:00 +24°C° 0 mm 0 mps 656 mmHg 65%
06:00 +24°C° 0 mm 0 mps 656 mmHg 64%
07:00 +26°C° 0.2 mm 1 mps 657 mmHg 60%
08:00 +27°C° 0.2 mm 1 mps 657 mmHg 56%
09:00 +28°C° 0.2 mm 1 mps 658 mmHg 52%
10:00 +29°C° 0.1 mm 2 mps 657 mmHg 51%
11:00 +29°C° 0.1 mm 2 mps 657 mmHg 49%
12:00 +30°C° 0.1 mm 3 mps 657 mmHg 48%
13:00 +30°C° 1.2 mm 3 mps 657 mmHg 52%
14:00 +29°C° 1.2 mm 3 mps 656 mmHg 56%
15:00 +28°C° 1.2 mm 3 mps 656 mmHg 60%
16:00 +27°C° 4.3 mm 3 mps 656 mmHg 66%
17:00 +26°C° 4.3 mm 4 mps 656 mmHg 71%
18:00 +23°C° 4.3 mm 4 mps 656 mmHg 77%
19:00 +25°C° 0.9 mm 3 mps 656 mmHg 73%
20:00 +25°C° 0.9 mm 3 mps 656 mmHg 68%
21:00 +26°C° 0.9 mm 2 mps 656 mmHg 63%
22:00 +26°C° 0 mm 2 mps 656 mmHg 62%
23:00 +26°C° 0 mm 1 mps 655 mmHg 61%

7 Agosto, Sábado

Tiempo Temperatura Precipitaciones Viento Presión Humedad
00:00 +26°C° 0 mm 1 mps 655 mmHg 61%
01:00 +26°C° 0 mm 1 mps 655 mmHg 61%
02:00 +26°C° 0 mm 1 mps 655 mmHg 62%
03:00 +26°C° 0 mm 1 mps 654 mmHg 63%
04:00 +26°C° 0 mm 1 mps 655 mmHg 62%
05:00 +26°C° 0 mm 1 mps 655 mmHg 61%
06:00 +26°C° 0 mm 1 mps 655 mmHg 60%
07:00 +27°C° 0 mm 1 mps 656 mmHg 56%
08:00 +28°C° 0 mm 1 mps 656 mmHg 51%
09:00 +29°C° 0 mm 2 mps 657 mmHg 47%
10:00 +29°C° 0 mm 2 mps 657 mmHg 48%
11:00 +30°C° 0 mm 3 mps 657 mmHg 48%
12:00 +30°C° 0 mm 3 mps 657 mmHg 49%
13:00 +30°C° 0.3 mm 4 mps 656 mmHg 49%
14:00 +30°C° 0.3 mm 4 mps 656 mmHg 49%
15:00 +30°C° 0.3 mm 5 mps 655 mmHg 49%
16:00 +30°C° 0.6 mm 4 mps 656 mmHg 53%
17:00 +29°C° 0.6 mm 4 mps 656 mmHg 57%
18:00 +28°C° 0.6 mm 3 mps 656 mmHg 60%
19:00 +28°C° 0.5 mm 3 mps 656 mmHg 65%
20:00 +27°C° 0.5 mm 2 mps 656 mmHg 69%
21:00 +26°C° 0.5 mm 1 mps 657 mmHg 73%
22:00 +26°C° 0.2 mm 1 mps 656 mmHg 71%
23:00 +27°C° 0.2 mm 1 mps 656 mmHg 70%

8 Agosto, Domingo

Tiempo Temperatura Precipitaciones Viento Presión Humedad
00:00 +25°C° 0.2 mm 0 mps 656 mmHg 69%
01:00 +25°C° 0 mm 0 mps 656 mmHg 69%
02:00 +27°C° 0 mm 1 mps 656 mmHg 69%
03:00 +27°C° 0 mm 1 mps 655 mmHg 69%
04:00 +26°C° 0 mm 1 mps 656 mmHg 70%
05:00 +24°C° 0 mm 0 mps 656 mmHg 70%
06:00 +24°C° 0 mm 0 mps 656 mmHg 71%
07:00 +27°C° 0 mm 1 mps 657 mmHg 66%
08:00 +28°C° 0 mm 1 mps 657 mmHg 60%
09:00 +29°C° 0 mm 2 mps 658 mmHg 55%
10:00 +30°C° 0 mm 3 mps 658 mmHg 53%
11:00 +30°C° 0 mm 3 mps 657 mmHg 51%
12:00 +32°C° 0 mm 4 mps 657 mmHg 49%
13:00 +32°C° 0.8 mm 4 mps 657 mmHg 49%
14:00 +32°C° 0.8 mm 4 mps 657 mmHg 49%
15:00 +32°C° 0.8 mm 5 mps 656 mmHg 49%
16:00 +30°C° 0.3 mm 4 mps 656 mmHg 52%
17:00 +30°C° 0.3 mm 4 mps 656 mmHg 54%
18:00 +29°C° 0.3 mm 4 mps 656 mmHg 57%
19:00 +28°C° 0 mm 3 mps 657 mmHg 59%
20:00 +28°C° 0 mm 2 mps 657 mmHg 62%
21:00 +28°C° 0 mm 1 mps 657 mmHg 65%
22:00 +27°C° 0 mm 1 mps 657 mmHg 67%
23:00 +27°C° 0 mm 1 mps 657 mmHg 70%
Mostrar más

Necesitamos Su Consentimiento

Meteoprog y nuestros Proveedores de Servicios pueden almacenar y acceder a sus datos personales como cookies, identificadores de dispositivo u otras tecnologías similares de su dispositivo y procesar dichos datos para personalizar contenido y anuncios, además de ofrecer funciones de redes sociales y analizar el tráfico.

  • Almacenar y/o acceder a información en su dispositivo

    Se puede almacenar o acceder a cookies, identificadores de dispositivo u otra información de su dispositivo para los fines anteriormente indicados.

  • Anuncios y contenido personalizados, medición de anuncios y contenido, percepciones del público, y desarrollo de productos

    Los anuncios y el contenido pueden personalizarse en base a su perfil. Se pueden añadir más datos para personalizar mejor los anuncios y contenidos. Se puede medir el rendimiento de los anuncios y contenidos. Se puede obtener la percepción sobre el público que ha visto los anuncios y contenidos. Dichos datos pueden usarse para desarrollar o mejorar la experiencia del usuario, sistemas y software.

Al hacer clic en ‘Estoy De Acuerdo’ usted permitirá el uso de las cookies, identificadores de dispositivo, balizas web u otras tecnologías similares indicadas. Su configuración puede cambiarse desde el navegador de su dispositivo.

Para ciertos fines, los intereses legítimos pueden ser considerados por encima del consentimiento. Puede leer más sobre ello en nuestra Política de Privacidad y Cookies.